Hourly Data Report for May 16, 2012

All times are specified in Local Standard Time (LST). Add 1 hour to adjust for Daylight Saving Time where and when it is observed.

ST. JOHN'S INTL A
NEWFOUNDLAND

47°37'07.000" N
52°45'09.000" W
140.50 m
8403505
71801
YYT

Download Data

Hourly Data (May 2012)
Hourly Data Report for May 16, 2012
Temp Definition
°C
Dew Point Temp Definition
°C
Rel Hum Definition
%
Wind Dir Definition
10's deg

Wind Spd Definition
km/h
Visibility Definition
km
Stn Press Definition
kPa
Hmdx Definition


Wind Chill Definition


Weather Definition


TIME
00:30 Legend Double Dagger 12.5 10.8 89 24 27 10.0 101.01     LegendNANA
01:30 Legend Double Dagger 11.9 11.1 95 26 27 10.0 100.99     Rain Showers
02:30 Legend Double Dagger 10.7 10.4 98 25 30 10.0 100.97     Cloudy
03:30 Legend Double Dagger 10.5 10.1 97 25 28 10.0 100.98     LegendNANA
04:30 Legend Double Dagger 10.3 10.0 98 25 28 10.0 101.00     LegendNANA
05:30 Legend Double Dagger 10.5 10.2 98 27 24 10.0 101.03     Cloudy
06:30 Legend Double Dagger 11.1 10.3 95 26 24 10.0 101.07     LegendNANA
07:30 Legend Double Dagger 13.6 11.5 87 25 24 10.0 101.09     LegendNANA
08:30 Legend Double Dagger 16.5 11.5 72 26 27 10.0 101.09     Mostly Cloudy
09:30 Legend Double Dagger 16.8 10.9 68 26 31 10.0 101.08     LegendNANA
10:30 Legend Double Dagger 18.3 11.7 65 25 28 10.0 101.08     LegendNANA
11:30 Legend Double Dagger 19.9 11.2 57 25 29 10.0 101.08     Cloudy
12:30 Legend Double Dagger 20.7 10.3 51 25 27 10.0 101.05     LegendNANA
13:30 Legend Double Dagger 21.9 10.6 48 26 28 10.0 101.03     LegendNANA
14:30 Legend Double Dagger 21.2 11.4 53 26 27 10.0 101.01     Mostly Cloudy
15:30 Legend Double Dagger 20.8 12.1 57 23 28 10.0 100.99     LegendNANA
16:30 Legend Double Dagger 20.0 13.3 65 26 31 10.0 101.00     LegendNANA
17:30 Legend Double Dagger 17.3 13.5 78 23 23 10.0 100.99     Mostly Cloudy
18:30 Legend Double Dagger 16.1 13.3 83 23 23 10.0 101.00     LegendNANA
19:30 Legend Double Dagger 15.1 12.5 84 23 21 10.0 101.02     LegendNANA
20:30 Legend Double Dagger 14.5 12.0 85 21 21 10.0 101.03     Mostly Cloudy
21:30 Legend Double Dagger 13.8 11.9 88 21 18 10.0 101.01     LegendNANA
22:30 Legend Double Dagger 14.0 11.9 87 20 19 10.0 100.94     LegendNANA
23:30 Legend Double Dagger 13.1 11.5 90 22 21 10.0 100.90     Mostly Cloudy

Notes on Data Quality.

Legend

  • E = Estimated
  • M = Missing
  • NA = Not Available
  • ‡ = Partner data that is not subject to review by the National Climate Archives
Date modified: